User: anonymous   Login
Location: ??????
(55.0357°N, 38.6195°E)
Time: 07:40:12
(UTC+00:00)
Language:

Meteor 1-28 Rocket - Orbit

View from above orbital plane
View from above orbital plane
View from above satellite
View from above satellite

Ground track
Ground track

The orbit data is extracted from the following two-line orbital elements,

1 10114U 77057B   24166.93556746  .00007435  00000-0  27489-3 0  9999
2 10114  97.5091 311.2392 0011146  34.8369 325.3598 15.27951326571141
Epoch (UTC): 14 June 2024 22:27:13
Eccentricity: 0.0011146
inclination: 97.5091°
perigee height: 474 km
apogee height: 489 km
right ascension of ascending node: 311.2392°
argument of perigee: 34.8369°
revolutions per day: 15.27951326
mean anomaly at epoch: 325.3598°
orbit number at epoch: 57114

The dashed part of the orbit path shows where the satellite is in the earth's shadow,  

DLR